Time,TemperatureF,DewpointF,PressureIn,WindDirection,WindDirectionDegrees,WindSpeedMPH,WindSpeedGustMPH,Humidity,HourlyPrecipIn,Conditions,Clouds,dailyrainin,SoftwareType,DateUTC
2013-06-20 00:01:00,51.0,49.0,-100.00,West,270,0.0,1.0,91,-99.99,,,-99.99,,2013-06-20 07:01:00,
2013-06-20 00:12:00,51.0,49.0,-100.00,West,270,0.0,1.0,92,-99.99,,,-99.99,,2013-06-20 07:12:00,
2013-06-20 00:22:00,51.0,49.0,-100.00,SW,225,3.0,4.0,92,-99.99,,,-99.99,,2013-06-20 07:22:00,
2013-06-20 00:34:00,51.0,49.0,-100.00,West,270,1.0,3.0,92,-99.99,,,-99.99,,2013-06-20 07:34:00,
2013-06-20 00:43:00,51.0,49.0,-100.00,West,270,1.0,3.0,92,-99.99,,,-99.99,,2013-06-20 07:43:00,
2013-06-20 00:53:00,51.0,49.0,-100.00,West,270,3.0,4.0,92,-99.99,,,-99.99,,2013-06-20 07:53:00,
2013-06-20 01:02:00,51.0,49.0,-100.00,West,270,3.0,4.0,92,-99.99,,,-99.99,,2013-06-20 08:02:00,
2013-06-20 01:11:00,51.0,48.0,-100.00,West,270,2.0,5.0,92,-99.99,,,-99.99,,2013-06-20 08:11:00,
2013-06-20 01:22:00,51.0,48.0,-100.00,West,270,1.0,2.0,92,-99.99,,,-99.99,,2013-06-20 08:22:00,
2013-06-20 01:34:00,51.0,48.0,-100.00,SW,225,1.0,3.0,92,-99.99,,,-99.99,,2013-06-20 08:34:00,
2013-06-20 01:43:00,51.0,48.0,-100.00,SW,225,1.0,3.0,92,-99.99,,,-99.99,,2013-06-20 08:43:00,
2013-06-20 01:53:00,50.0,48.0,-100.00,SW,225,3.0,4.0,92,-99.99,,,-99.99,,2013-06-20 08:53:00,
2013-06-20 02:01:00,50.0,48.0,-100.00,West,270,1.0,4.0,92,-99.99,,,-99.99,,2013-06-20 09:01:00,
2013-06-20 02:11:00,50.0,48.0,-100.00,West,270,1.0,4.0,92,-99.99,,,-99.99,,2013-06-20 09:11:00,
2013-06-20 02:22:00,50.0,48.0,-100.00,West,270,0.0,1.0,92,-99.99,,,-99.99,,2013-06-20 09:22:00,
2013-06-20 02:33:00,50.0,48.0,-100.00,West,270,0.0,1.0,92,-99.99,,,-99.99,,2013-06-20 09:33:00,
2013-06-20 02:42:00,50.0,48.0,-100.00,West,270,0.0,1.0,92,-99.99,,,-99.99,,2013-06-20 09:42:00,
2013-06-20 02:52:00,50.0,48.0,-100.00,West,270,0.0,1.0,92,-99.99,,,-99.99,,2013-06-20 09:52:00,
2013-06-20 03:01:00,49.0,47.0,-100.00,North,-999,0.0,0.0,92,-99.99,,,-99.99,,2013-06-20 10:01:00,
2013-06-20 03:11:00,49.0,47.0,-100.00,North,-999,0.0,0.0,92,-99.99,,,-99.99,,2013-06-20 10:11:00,
2013-06-20 03:22:00,49.0,47.0,-100.00,North,-999,0.0,0.0,92,-99.99,,,-99.99,,2013-06-20 10:22:00,
2013-06-20 03:33:00,49.0,46.0,-100.00,North,-999,0.0,0.0,92,-99.99,,,-99.99,,2013-06-20 10:33:00,
2013-06-20 03:43:00,49.0,46.0,-100.00,North,-999,0.0,0.0,92,-99.99,,,-99.99,,2013-06-20 10:43:00,
2013-06-20 03:53:00,49.0,46.0,-100.00,North,-999,0.0,0.0,92,-99.99,,,-99.99,,2013-06-20 10:53:00,
2013-06-20 04:02:00,49.0,46.0,-100.00,North,-999,0.0,0.0,92,-99.99,,,-99.99,,2013-06-20 11:02:00,
2013-06-20 04:11:00,49.0,46.0,-100.00,North,-999,0.0,0.0,92,-99.99,,,-99.99,,2013-06-20 11:11:00,
2013-06-20 04:22:00,49.0,46.0,-100.00,West,270,0.0,1.0,92,-99.99,,,-99.99,,2013-06-20 11:22:00,
2013-06-20 04:34:00,49.0,47.0,-100.00,North,-999,0.0,0.0,92,-99.99,,,-99.99,,2013-06-20 11:34:00,
2013-06-20 04:42:00,49.0,47.0,-100.00,North,-999,0.0,0.0,92,-99.99,,,-99.99,,2013-06-20 11:42:00,
2013-06-20 04:53:00,49.0,47.0,-100.00,North,-999,0.0,0.0,92,-99.99,,,-99.99,,2013-06-20 11:53:00,
2013-06-20 05:02:00,49.0,47.0,-100.00,North,-999,0.0,0.0,93,-99.99,,,-99.99,,2013-06-20 12:02:00,
2013-06-20 05:11:00,49.0,47.0,-100.00,North,-999,0.0,0.0,93,-99.99,,,-99.99,,2013-06-20 12:11:00,
2013-06-20 05:22:00,49.0,47.0,-100.00,North,-999,0.0,0.0,93,-99.99,,,-99.99,,2013-06-20 12:22:00,
2013-06-20 05:34:00,49.0,47.0,-100.00,North,-999,0.0,0.0,93,-99.99,,,-99.99,,2013-06-20 12:34:00,
2013-06-20 05:43:00,49.0,47.0,-100.00,North,-999,0.0,0.0,93,-99.99,,,-99.99,,2013-06-20 12:43:00,
2013-06-20 05:53:00,48.0,46.0,-100.00,North,-999,0.0,0.0,93,-99.99,,,-99.99,,2013-06-20 12:53:00,
2013-06-20 06:02:00,48.0,46.0,-100.00,North,-999,0.0,0.0,93,-99.99,,,-99.99,,2013-06-20 13:02:00,
2013-06-20 06:11:00,49.0,47.0,-100.00,North,-999,0.0,0.0,93,-99.99,,,-99.99,,2013-06-20 13:11:00,
2013-06-20 06:22:00,49.0,47.0,-100.00,North,-999,0.0,0.0,93,-99.99,,,-99.99,,2013-06-20 13:22:00,
2013-06-20 06:33:00,49.0,47.0,-100.00,North,-999,0.0,0.0,93,-99.99,,,-99.99,,2013-06-20 13:33:00,
2013-06-20 06:42:00,49.0,47.0,-100.00,North,-999,0.0,0.0,93,-99.99,,,-99.99,,2013-06-20 13:42:00,
2013-06-20 06:53:00,49.0,47.0,-100.00,North,-999,0.0,0.0,93,-99.99,,,-99.99,,2013-06-20 13:53:00,
2013-06-20 07:01:00,49.0,47.0,-100.00,North,-999,0.0,0.0,93,-99.99,,,-99.99,,2013-06-20 14:01:00,
2013-06-20 07:11:00,49.0,47.0,-100.00,North,-999,0.0,0.0,93,-99.99,,,-99.99,,2013-06-20 14:11:00,
2013-06-20 07:22:00,49.0,47.0,-100.00,North,-999,0.0,0.0,93,-99.99,,,-99.99,,2013-06-20 14:22:00,
2013-06-20 07:32:00,49.0,47.0,-100.00,North,-999,0.0,0.0,93,-99.99,,,-99.99,,2013-06-20 14:32:00,
2013-06-20 07:42:00,50.0,48.0,-100.00,North,-999,0.0,0.0,93,-99.99,,,-99.99,,2013-06-20 14:42:00,
2013-06-20 07:53:00,50.0,48.0,-100.00,North,-999,0.0,0.0,93,-99.99,,,-99.99,,2013-06-20 14:53:00,
2013-06-20 08:01:00,50.0,48.0,-100.00,North,-999,0.0,0.0,93,-99.99,,,-99.99,,2013-06-20 15:01:00,
2013-06-20 08:11:00,50.0,48.0,-100.00,North,-999,0.0,0.0,93,-99.99,,,-99.99,,2013-06-20 15:11:00,
2013-06-20 08:22:00,51.0,49.0,-100.00,North,-999,0.0,0.0,93,-99.99,,,-99.99,,2013-06-20 15:22:00,
2013-06-20 08:33:00,51.0,49.0,-100.00,North,-999,0.0,0.0,93,-99.99,,,-99.99,,2013-06-20 15:33:00,
2013-06-20 08:43:00,52.0,50.0,-100.00,North,-999,0.0,0.0,93,-99.99,,,-99.99,,2013-06-20 15:43:00,
2013-06-20 08:53:00,52.0,50.0,-100.00,North,-999,0.0,0.0,93,-99.99,,,-99.99,,2013-06-20 15:53:00,
2013-06-20 09:01:00,53.0,51.0,-100.00,West,270,1.0,2.0,93,-99.99,,,-99.99,,2013-06-20 16:01:00,
2013-06-20 09:11:00,53.0,51.0,-100.00,West,270,1.0,2.0,93,-99.99,,,-99.99,,2013-06-20 16:11:00,
2013-06-20 09:22:00,53.0,51.0,-100.00,West,270,1.0,3.0,93,-99.99,,,-99.99,,2013-06-20 16:22:00,
2013-06-20 09:33:00,53.0,50.0,-100.00,West,270,1.0,2.0,92,-99.99,,,-99.99,,2013-06-20 16:33:00,
2013-06-20 09:42:00,53.0,50.0,-100.00,West,270,1.0,2.0,92,-99.99,,,-99.99,,2013-06-20 16:42:00,
2013-06-20 09:52:00,53.0,50.0,-100.00,SW,225,0.0,1.0,89,-99.99,,,-99.99,,2013-06-20 16:52:00,
2013-06-20 10:01:00,54.0,50.0,-100.00,West,270,3.0,7.0,87,-99.99,,,-99.99,,2013-06-20 17:01:00,
2013-06-20 10:11:00,54.0,50.0,-100.00,West,270,3.0,7.0,87,-99.99,,,-99.99,,2013-06-20 17:11:00,
2013-06-20 10:22:00,55.0,48.0,-100.00,SW,225,3.0,4.0,78,-99.99,,,-99.99,,2013-06-20 17:22:00,
2013-06-20 10:32:00,55.0,48.0,-100.00,SW,225,3.0,4.0,78,-99.99,,,-99.99,,2013-06-20 17:32:00,
2013-06-20 10:43:00,56.0,47.0,-100.00,West,270,4.0,6.0,72,-99.99,,,-99.99,,2013-06-20 17:43:00,
2013-06-20 10:53:00,56.0,48.0,-100.00,West,270,2.0,3.0,74,-99.99,,,-99.99,,2013-06-20 17:53:00,
2013-06-20 11:01:00,56.0,47.0,-100.00,West,270,4.0,6.0,73,-99.99,,,-99.99,,2013-06-20 18:01:00,
2013-06-20 11:11:00,56.0,47.0,-100.00,West,270,4.0,6.0,73,-99.99,,,-99.99,,2013-06-20 18:11:00,
2013-06-20 11:22:00,56.0,46.0,-100.00,SW,225,2.0,4.0,70,-99.99,,,-99.99,,2013-06-20 18:22:00,
2013-06-20 11:33:00,56.0,46.0,-100.00,SW,225,2.0,4.0,70,-99.99,,,-99.99,,2013-06-20 18:33:00,
2013-06-20 11:43:00,58.0,47.0,-100.00,NW,315,1.0,3.0,67,-99.99,,,-99.99,,2013-06-20 18:43:00,
2013-06-20 11:53:00,59.0,47.0,-100.00,SW,225,4.0,6.0,65,-99.99,,,-99.99,,2013-06-20 18:53:00,
2013-06-20 12:01:00,58.0,45.0,-100.00,SW,225,2.0,3.0,62,-99.99,,,-99.99,,2013-06-20 19:01:00,
2013-06-20 12:11:00,58.0,45.0,-100.00,SW,225,2.0,3.0,62,-99.99,,,-99.99,,2013-06-20 19:11:00,
2013-06-20 12:22:00,61.0,46.0,-100.00,West,270,2.0,4.0,59,-99.99,,,-99.99,,2013-06-20 19:22:00,
2013-06-20 12:33:00,61.0,45.0,-100.00,SW,225,4.0,6.0,54,-99.99,,,-99.99,,2013-06-20 19:33:00,
2013-06-20 12:43:00,61.0,45.0,-100.00,SW,225,4.0,6.0,54,-99.99,,,-99.99,,2013-06-20 19:43:00,
2013-06-20 13:01:00,63.0,46.0,-100.00,West,270,3.0,5.0,53,-99.99,,,-99.99,,2013-06-20 20:01:00,
2013-06-20 13:11:00,63.0,46.0,-100.00,West,270,3.0,5.0,53,-99.99,,,-99.99,,2013-06-20 20:11:00,
2013-06-20 13:42:00,63.0,45.0,-100.00,West,270,3.0,6.0,51,-99.99,,,-99.99,,2013-06-20 20:42:00,
2013-06-20 21:11:00,56.0,46.0,-100.00,West,270,1.0,1.0,69,-99.99,,,-99.99,,2013-06-21 04:11:00,